C/2020 T2 ( Palomar )

Japanese version
Home page
Updated on October 29, 2020

---------------------------------------------------------------------

* Profile

Discovery Date October 7, 2020
Magnitude 19.3 mag
Discoverer Dmitry A. Duev (Palomar, Zwicky Transient Facility's Twilight Survey)

* Pictures

* Orbital Elements

Epoch 2021 July 5.0 TT = JDT 2459400.5                                          
T 2021 July 11.14638 TT                                 Rudenko                 
q   2.0546940            (2000.0)            P               Q                  
z  +0.0032018      Peri.  150.38279     -0.53887539     +0.70302590             
 +/-0.0000074      Node    83.04834     -0.83513965     -0.37375643             
e   0.9934213      Incl.   27.87307     -0.11025006     -0.60502952             
From 67 observations 2019 Dec. 11-2020 Oct. 21, mean residual 0".4.             

* Finding Charts

* Magnitudes Graph

        m1 = 10.0 + 5 log d + 10.0 log r

---------------------------------------------------------------------

The orbital elements are published on M.P.E.C. 2020-U170.
The charts are made with StellaNavigator Ver.10 (AstroArts).
The magnitudes graphs are made with Comet for Windows.

---------------------------------------------------------------------

Copyright(C) Seiichi Yoshida (comet@aerith.net). All rights reserved.